• In Netherlands
  • List of Countries
  • For 7 days
  • Water Temperature
  • Satellite Maps
  • Weather Map
  • Weather Widgets
  • user-avatar
    Login

    Hourly Weather Uige

    Today, 26 May, Friday

    Time Temperature Precipitation Wind Pressure Humidity
    00:00 +21°C° 0 mm 1 mps 691 mmHg 92%
    01:00 +21°C° 0 mm 1 mps 691 mmHg 95%
    02:00 +20°C° 0 mm 1 mps 691 mmHg 95%
    03:00 +20°C° 0 mm 1 mps 691 mmHg 96%
    04:00 +20°C° 0 mm 1 mps 691 mmHg 96%
    05:00 +21°C° 0 mm 1 mps 691 mmHg 93%
    06:00 +21°C° 0 mm 1 mps 691 mmHg 90%
    07:00 +22°C° 0 mm 1 mps 692 mmHg 87%
    08:00 +25°C° 0 mm 1 mps 693 mmHg 77%
    09:00 +27°C° 0 mm 1 mps 693 mmHg 66%
    10:00 +30°C° 0 mm 1 mps 694 mmHg 55%
    11:00 +31°C° 0.3 mm 1 mps 693 mmHg 53%
    12:00 +32°C° 0.3 mm 1 mps 693 mmHg 51%
    13:00 +33°C° 0.3 mm 1 mps 693 mmHg 48%
    14:00 +32°C° 0.3 mm 1 mps 692 mmHg 52%
    15:00 +31°C° 0.3 mm 1 mps 691 mmHg 55%
    16:00 +30°C° 0.3 mm 1 mps 691 mmHg 58%
    17:00 +28°C° 0.2 mm 1 mps 691 mmHg 66%
    18:00 +26°C° 0.2 mm 1 mps 691 mmHg 74%
    19:00 +24°C° 0.2 mm 1 mps 691 mmHg 82%
    20:00 +24°C° 0.1 mm 1 mps 692 mmHg 82%
    21:00 +23°C° 0.1 mm 1 mps 692 mmHg 83%
    22:00 +23°C° 0.1 mm 1 mps 693 mmHg 84%
    23:00 +22°C° 0.1 mm 1 mps 693 mmHg 87%

    Tomorrow, 27 May, Saturday

    Time Temperature Precipitation Wind Pressure Humidity
    00:00 +22°C° 0.1 mm 1 mps 693 mmHg 91%
    01:00 +21°C° 0.1 mm 1 mps 692 mmHg 94%
    02:00 +21°C° 0 mm 1 mps 692 mmHg 95%
    03:00 +21°C° 0 mm 1 mps 692 mmHg 96%
    04:00 +20°C° 0 mm 1 mps 692 mmHg 96%
    05:00 +20°C° 0 mm 1 mps 692 mmHg 95%
    06:00 +21°C° 0 mm 1 mps 692 mmHg 94%
    07:00 +21°C° 0 mm 1 mps 693 mmHg 92%
    08:00 +23°C° 0.1 mm 1 mps 694 mmHg 81%
    09:00 +25°C° 0.1 mm 1 mps 694 mmHg 70%
    10:00 +27°C° 0.1 mm 2 mps 695 mmHg 59%
    11:00 +29°C° 0.1 mm 2 mps 694 mmHg 56%
    12:00 +30°C° 0.1 mm 1 mps 694 mmHg 52%
    13:00 +31°C° 0.1 mm 1 mps 693 mmHg 48%
    14:00 +31°C° 0.3 mm 1 mps 692 mmHg 51%
    15:00 +30°C° 0.3 mm 1 mps 692 mmHg 55%
    16:00 +30°C° 0.3 mm 1 mps 691 mmHg 58%
    17:00 +28°C° 0.3 mm 1 mps 691 mmHg 65%
    18:00 +26°C° 0.3 mm 1 mps 691 mmHg 73%
    19:00 +24°C° 0.3 mm 1 mps 691 mmHg 80%
    20:00 +23°C° 0.1 mm 1 mps 692 mmHg 82%
    21:00 +23°C° 0.1 mm 1 mps 693 mmHg 84%
    22:00 +22°C° 0.1 mm 1 mps 693 mmHg 86%
    23:00 +22°C° 0.2 mm 1 mps 693 mmHg 88%

    Day after tomorrow, 28 May, Sunday

    Time Temperature Precipitation Wind Pressure Humidity
    00:00 +21°C° 0.2 mm 1 mps 693 mmHg 90%
    01:00 +21°C° 0.2 mm 1 mps 693 mmHg 92%
    02:00 +21°C° 0.6 mm 1 mps 692 mmHg 92%
    03:00 +21°C° 0.6 mm 1 mps 692 mmHg 93%
    04:00 +20°C° 0.6 mm 1 mps 692 mmHg 94%
    05:00 +21°C° 0.8 mm 1 mps 692 mmHg 93%
    06:00 +21°C° 0.8 mm 1 mps 693 mmHg 93%
    07:00 +21°C° 0.8 mm 1 mps 693 mmHg 92%
    08:00 +23°C° 0.6 mm 1 mps 693 mmHg 89%
    09:00 +24°C° 0.6 mm 1 mps 694 mmHg 85%
    10:00 +25°C° 0.6 mm 1 mps 694 mmHg 81%
    11:00 +27°C° 0.4 mm 1 mps 694 mmHg 72%
    12:00 +29°C° 0.4 mm 1 mps 693 mmHg 64%
    13:00 +31°C° 0.4 mm 1 mps 693 mmHg 55%
    14:00 +31°C° 0.4 mm 1 mps 693 mmHg 56%
    15:00 +31°C° 0.4 mm 1 mps 692 mmHg 57%
    16:00 +28°C° 0.4 mm 0 mps 692 mmHg 58%
    17:00 +28°C° 0.1 mm 1 mps 692 mmHg 65%
    18:00 +26°C° 0.1 mm 1 mps 692 mmHg 72%
    19:00 +24°C° 0.1 mm 1 mps 692 mmHg 79%
    20:00 +23°C° 0 mm 1 mps 692 mmHg 80%
    21:00 +23°C° 0 mm 1 mps 693 mmHg 81%
    22:00 +23°C° 0 mm 1 mps 693 mmHg 82%
    23:00 +22°C° 0 mm 1 mps 693 mmHg 84%

    29 May, Monday

    Time Temperature Precipitation Wind Pressure Humidity
    00:00 +22°C° 0 mm 1 mps 692 mmHg 85%
    01:00 +22°C° 0 mm 1 mps 692 mmHg 87%
    02:00 +21°C° 0 mm 1 mps 692 mmHg 88%
    03:00 +21°C° 0 mm 1 mps 691 mmHg 90%
    04:00 +21°C° 0 mm 1 mps 691 mmHg 92%
    05:00 +21°C° 0 mm 1 mps 692 mmHg 91%
    06:00 +22°C° 0 mm 1 mps 692 mmHg 90%
    07:00 +22°C° 0 mm 1 mps 693 mmHg 90%
    08:00 +25°C° 0.1 mm 1 mps 693 mmHg 79%
    09:00 +27°C° 0.1 mm 1 mps 694 mmHg 69%
    10:00 +30°C° 0.1 mm 1 mps 694 mmHg 59%
    11:00 +30°C° 0.3 mm 1 mps 694 mmHg 56%
    12:00 +31°C° 0.3 mm 1 mps 693 mmHg 52%
    13:00 +32°C° 0.3 mm 1 mps 692 mmHg 49%
    14:00 +32°C° 0.3 mm 1 mps 692 mmHg 51%
    15:00 +31°C° 0.3 mm 1 mps 692 mmHg 52%
    16:00 +31°C° 0.3 mm 1 mps 691 mmHg 54%
    17:00 +29°C° 0 mm 1 mps 691 mmHg 60%
    18:00 +26°C° 0 mm 1 mps 691 mmHg 67%
    19:00 +24°C° 0 mm 1 mps 691 mmHg 73%
    20:00 +23°C° 0 mm 1 mps 692 mmHg 75%
    21:00 +23°C° 0 mm 1 mps 692 mmHg 77%
    22:00 +23°C° 0 mm 1 mps 692 mmHg 79%
    23:00 +22°C° 0 mm 1 mps 692 mmHg 82%

    30 May, Tuesday

    Time Temperature Precipitation Wind Pressure Humidity
    00:00 +22°C° 0 mm 1 mps 692 mmHg 86%
    01:00 +21°C° 0 mm 1 mps 692 mmHg 89%
    02:00 +21°C° 0 mm 1 mps 691 mmHg 91%
    03:00 +21°C° 0 mm 1 mps 691 mmHg 93%
    04:00 +20°C° 0 mm 1 mps 691 mmHg 95%
    05:00 +21°C° 0 mm 1 mps 692 mmHg 93%
    06:00 +21°C° 0 mm 1 mps 692 mmHg 91%
    07:00 +22°C° 0 mm 1 mps 692 mmHg 90%
    08:00 +25°C° 0 mm 1 mps 693 mmHg 78%
    09:00 +27°C° 0 mm 1 mps 694 mmHg 66%
    10:00 +30°C° 0 mm 2 mps 694 mmHg 54%
    11:00 +31°C° 0 mm 2 mps 694 mmHg 49%
    12:00 +32°C° 0 mm 2 mps 693 mmHg 43%
    13:00 +35°C° 0 mm 2 mps 692 mmHg 38%
    14:00 +33°C° 0 mm 1 mps 692 mmHg 40%
    15:00 +33°C° 0 mm 1 mps 692 mmHg 42%
    16:00 +33°C° 0 mm 1 mps 691 mmHg 44%
    17:00 +30°C° 0 mm 1 mps 691 mmHg 51%
    18:00 +27°C° 0 mm 1 mps 691 mmHg 59%
    19:00 +24°C° 0 mm 1 mps 691 mmHg 66%
    20:00 +24°C° 0 mm 1 mps 691 mmHg 66%
    21:00 +23°C° 0 mm 1 mps 692 mmHg 66%
    22:00 +23°C° 0 mm 1 mps 692 mmHg 65%
    23:00 +22°C° 0 mm 1 mps 692 mmHg 70%

    31 May, Wednesday

    Time Temperature Precipitation Wind Pressure Humidity
    00:00 +22°C° 0 mm 1 mps 691 mmHg 75%
    01:00 +21°C° 0 mm 1 mps 691 mmHg 79%
    02:00 +21°C° 0 mm 1 mps 691 mmHg 83%
    03:00 +20°C° 0 mm 1 mps 691 mmHg 87%
    04:00 +20°C° 0 mm 1 mps 691 mmHg 91%
    05:00 +20°C° 0 mm 1 mps 691 mmHg 90%
    06:00 +21°C° 0 mm 1 mps 692 mmHg 89%
    07:00 +22°C° 0 mm 1 mps 693 mmHg 88%
    08:00 +24°C° 0 mm 1 mps 693 mmHg 76%
    09:00 +27°C° 0 mm 1 mps 694 mmHg 64%
    10:00 +30°C° 0 mm 1 mps 694 mmHg 52%
    11:00 +31°C° 0 mm 1 mps 694 mmHg 47%
    12:00 +32°C° 0 mm 1 mps 693 mmHg 42%
    13:00 +34°C° 0 mm 2 mps 693 mmHg 38%
    14:00 +33°C° 0 mm 1 mps 692 mmHg 41%
    15:00 +32°C° 0 mm 1 mps 692 mmHg 44%
    16:00 +32°C° 0 mm 1 mps 691 mmHg 47%
    17:00 +30°C° 0 mm 1 mps 692 mmHg 51%
    18:00 +28°C° 0 mm 1 mps 692 mmHg 55%
    19:00 +26°C° 0 mm 1 mps 692 mmHg 59%
    20:00 +25°C° 0 mm 1 mps 692 mmHg 61%
    21:00 +25°C° 0 mm 1 mps 692 mmHg 62%
    22:00 +25°C° 0 mm 1 mps 693 mmHg 63%
    23:00 +24°C° 0 mm 1 mps 693 mmHg 66%
    Show more